STARLINK-5635, 55367

Orbit data source: Space-Track

STARLINK-5635, 55367 is a payload satellite owned by SpaceX/Seattle (US) in LEO that was launched on Thu, 26 Jan 2023 UTC via an FALCON 9 launch vehicle from the Air Force Eastern Test Range (AFETR). Payload-class satellites include a variety of spacecraft equipped with specific instruments for various scientific and technological missions. These include communications satellites like Starlink; space stations such as the ISS; scientific satellites like the Hubble; Earth observation satellites from companies like Planet Labs, Umbra, and HawkEye 360; GPS; miniature CubeSats for education and research; and military/defense satellites.

Loading next visibility...
Identifier
55367, 2023-013AN
Orbit
LEO
Country
Flag of USUS
Related business
Manufacturer
SpaceX/Seattle
Mission
Operational spacecraft
Bus & Motor
STARLINK, Unknown motor
Mass
305 kg wet, ~290 kg dry
Launch date (UTC)
2023-01-26 (3 years ago)
Launch vehicle
FALCON 9
Launch site
Air Force Eastern Test Range (AFETR)
Object type
Payload
Rocket body
Debris
Shape & HBR
Unknown shape, 10.1 m
Radar Cross Section
Large (>1 m²)

Expand to show TLE details & history
Last TLE update: 11 hours ago

TLE from 11 hours ago
0 STARLINK-5635
1 55367U 23013AN  25346.84735040  .00005422  00000-0  41591-3 0  9992
2 55367  43.0035  39.3995 0000989 264.7379  95.3351 15.02553619158798
Epoch: 2025-12-12T20:20Z
TLE epoch observation values (Epoch: 2025-12-12T20:20:11.074Z)
Latitude
0.00001°
Longitude
12.57027°
Altitude
558.867 km
Speed
7.584 km/s
True Right ascension
02h 37m 35s
True Declination
0° 00' 00"
Sunlit
Object was in full shadow at epoch
Visualization orbit readout
Latitude
Unknown
Longitude
Unknown
Altitude
Unknown
Speed
Unknown
Apparent Right ascension
Unknown
Apparent Declination
Unknown
Sunlit
N/A
Visualization observer readout
Local Sidereal Time
05:23:03
Azimuth
Unknown
Elevation
Unknown
Doppler factor
Unknown
Orbital elements
Apogee altitude
561.635 km
Perigee altitude
560.262 km
Semi-major axis
6,939.086 km
Eccentricity
0.0001
Inclination
43.0035°
RAAN
39.3995°
Arg. of periapsis
264.7379°
True anomaly
95.34638°
Mean anomaly
95.3351°
Eccentric anomaly
95.34074°
Mean motion
3.75483 °/min
Orbital period
95.88 mins
BSTAR
0.00041591
Loading maneuver chart data...
Computing Atmospheric mass density...
Loading historical data...
Loading historical data...
Loading historical data...
Loading historical data...
Loading historical data...
Loading historical data...
Loading historical data...

Documentation

Showing up to 5 results
|